TimeCDT,TemperatureF,Dew PointF,Humidity,Sea Level PressureIn,VisibilityMPH,Wind Direction,Wind SpeedMPH,Gust SpeedMPH,PrecipitationIn,Events,Conditions,WindDirDegrees,DateUTC
12:15 AM,30.2,30.2,100,29.94,10.0,North,12.7,-,N/A,,Overcast,360,2014-03-19 05:15:00
12:35 AM,30.2,30.2,100,29.94,10.0,North,10.4,-,N/A,,Overcast,360,2014-03-19 05:35:00
12:54 AM,30.2,30.2,100,29.94,10.0,North,10.4,-,N/A,,Overcast,350,2014-03-19 05:54:00
1:15 AM,30.2,30.2,100,29.94,10.0,North,9.2,-,N/A,,Scattered Clouds,350,2014-03-19 06:15:00
1:35 AM,30.2,30.2,100,29.94,10.0,NNW,9.2,-,N/A,,Scattered Clouds,340,2014-03-19 06:35:00
1:54 AM,30.2,28.4,93,29.94,10.0,North,9.2,-,N/A,,Overcast,350,2014-03-19 06:54:00
2:15 AM,28.4,28.4,100,29.94,10.0,NNW,10.4,-,N/A,,Overcast,340,2014-03-19 07:15:00
2:34 AM,28.4,28.4,100,29.94,10.0,North,12.7,-,N/A,,Overcast,350,2014-03-19 07:34:00
2:55 AM,28.4,28.4,100,29.94,10.0,North,12.7,-,N/A,,Overcast,350,2014-03-19 07:55:00
3:15 AM,28.4,28.4,100,29.94,10.0,North,10.4,-,N/A,,Mostly Cloudy,350,2014-03-19 08:15:00
3:34 AM,28.4,28.4,100,29.94,10.0,North,9.2,-,N/A,,Overcast,350,2014-03-19 08:34:00
3:55 AM,28.4,26.6,93,29.94,10.0,North,15.0,-,N/A,,Overcast,350,2014-03-19 08:55:00
4:15 AM,28.4,26.6,93,29.94,10.0,North,11.5,-,N/A,,Mostly Cloudy,360,2014-03-19 09:15:00
4:34 AM,28.4,26.6,93,29.94,10.0,North,11.5,-,N/A,,Mostly Cloudy,360,2014-03-19 09:34:00
4:55 AM,28.4,26.6,93,29.94,10.0,North,9.2,-,N/A,,Overcast,350,2014-03-19 09:55:00
5:15 AM,28.4,26.6,93,29.95,10.0,North,11.5,-,N/A,,Overcast,350,2014-03-19 10:15:00
5:34 AM,28.4,26.6,93,29.95,10.0,NNW,16.1,-,N/A,,Overcast,340,2014-03-19 10:34:00
5:55 AM,26.6,26.6,100,29.96,10.0,NNW,18.4,-,N/A,,Overcast,340,2014-03-19 10:55:00
6:15 AM,26.6,26.6,100,29.96,10.0,North,13.8,-,N/A,,Overcast,350,2014-03-19 11:15:00
6:34 AM,26.6,26.6,100,29.96,10.0,North,12.7,-,N/A,,Overcast,360,2014-03-19 11:34:00
6:55 AM,26.6,24.8,93,29.96,10.0,North,9.2,-,N/A,,Mostly Cloudy,350,2014-03-19 11:55:00
7:14 AM,26.6,24.8,93,29.96,10.0,North,8.1,-,N/A,,Scattered Clouds,350,2014-03-19 12:14:00
7:35 AM,24.8,24.8,100,29.96,10.0,NNW,9.2,-,N/A,,Scattered Clouds,340,2014-03-19 12:35:00
7:55 AM,26.6,24.8,93,29.97,10.0,NNW,8.1,-,N/A,,Overcast,340,2014-03-19 12:55:00
8:14 AM,26.6,26.6,100,29.97,10.0,NNW,9.2,-,N/A,,Overcast,340,2014-03-19 13:14:00
8:35 AM,26.6,26.6,100,29.97,10.0,NNW,9.2,-,N/A,,Overcast,340,2014-03-19 13:35:00
8:55 AM,26.6,26.6,100,29.97,10.0,NNW,5.8,-,N/A,,Scattered Clouds,340,2014-03-19 13:55:00
9:14 AM,28.4,26.6,93,29.96,10.0,NNW,3.5,-,N/A,,Mostly Cloudy,340,2014-03-19 14:14:00
9:35 AM,28.4,26.6,93,29.97,10.0,Calm,Calm,-,N/A,,Mostly Cloudy,0,2014-03-19 14:35:00
9:54 AM,28.4,26.6,93,29.97,10.0,NW,5.8,-,N/A,,Scattered Clouds,320,2014-03-19 14:54:00
10:14 AM,30.2,26.6,86,29.97,10.0,WNW,4.6,-,N/A,,Overcast,300,2014-03-19 15:14:00
10:35 AM,30.2,26.6,86,29.97,10.0,NNW,4.6,-,N/A,,Overcast,330,2014-03-19 15:35:00
10:55 AM,30.2,26.6,86,29.97,10.0,NW,6.9,-,N/A,,Overcast,320,2014-03-19 15:55:00
11:14 AM,30.2,26.6,86,29.97,10.0,NNW,4.6,-,N/A,,Overcast,340,2014-03-19 16:14:00
11:35 AM,32.0,26.6,80,29.97,10.0,North,3.5,-,N/A,,Overcast,360,2014-03-19 16:35:00
11:54 AM,33.8,26.6,75,29.97,10.0,North,4.6,-,N/A,,Overcast,360,2014-03-19 16:54:00
12:15 PM,33.8,26.6,75,29.97,10.0,North,5.8,-,N/A,,Overcast,350,2014-03-19 17:15:00
12:35 PM,35.6,24.8,65,29.97,10.0,NW,5.8,-,N/A,,Overcast,310,2014-03-19 17:35:00
12:54 PM,35.6,26.6,70,29.97,10.0,NW,3.5,-,N/A,,Overcast,320,2014-03-19 17:54:00
1:15 PM,35.6,24.8,65,29.97,10.0,WNW,6.9,-,N/A,,Overcast,300,2014-03-19 18:15:00
1:35 PM,35.6,26.6,70,29.96,10.0,WNW,5.8,-,N/A,,Overcast,300,2014-03-19 18:35:00
1:54 PM,37.4,26.6,65,29.96,10.0,WNW,9.2,-,N/A,,Overcast,300,2014-03-19 18:54:00
2:15 PM,37.4,24.8,60,29.96,10.0,West,8.1,-,N/A,,Mostly Cloudy,260,2014-03-19 19:15:00
2:34 PM,37.4,24.8,60,29.95,10.0,WNW,4.6,-,N/A,,Mostly Cloudy,300,2014-03-19 19:34:00
2:54 PM,37.4,24.8,60,29.95,10.0,WNW,5.8,-,N/A,,Mostly Cloudy,300,2014-03-19 19:54:00
3:15 PM,37.4,24.8,60,29.94,10.0,WNW,4.6,-,N/A,,Mostly Cloudy,300,2014-03-19 20:15:00
3:35 PM,39.2,26.6,61,29.93,10.0,West,9.2,-,N/A,,Mostly Cloudy,270,2014-03-19 20:35:00
3:54 PM,39.2,26.6,61,29.93,10.0,West,6.9,-,N/A,,Mostly Cloudy,260,2014-03-19 20:54:00
4:15 PM,39.2,28.4,65,29.93,10.0,West,9.2,-,N/A,,Mostly Cloudy,270,2014-03-19 21:15:00
4:34 PM,39.2,28.4,65,29.93,10.0,West,10.4,-,N/A,,Mostly Cloudy,260,2014-03-19 21:34:00
4:54 PM,39.2,28.4,65,29.93,10.0,WSW,9.2,-,N/A,,Scattered Clouds,250,2014-03-19 21:54:00
5:15 PM,39.2,28.4,65,29.93,10.0,West,6.9,-,N/A,,Scattered Clouds,260,2014-03-19 22:15:00
5:34 PM,39.2,26.6,61,29.92,10.0,West,6.9,-,N/A,,Scattered Clouds,260,2014-03-19 22:34:00
5:54 PM,39.2,26.6,61,29.92,10.0,West,6.9,-,N/A,,Clear,270,2014-03-19 22:54:00
6:15 PM,39.2,26.6,61,29.93,10.0,West,5.8,-,N/A,,Scattered Clouds,260,2014-03-19 23:15:00
6:34 PM,39.2,26.6,61,29.93,10.0,WNW,9.2,-,N/A,,Scattered Clouds,290,2014-03-19 23:34:00
6:55 PM,39.2,28.4,65,29.93,10.0,West,4.6,-,N/A,,Scattered Clouds,280,2014-03-19 23:55:00
7:15 PM,37.4,28.4,70,29.93,10.0,WNW,8.1,-,N/A,,Scattered Clouds,290,2014-03-20 00:15:00
7:34 PM,37.4,28.4,70,29.93,10.0,West,5.8,-,N/A,,Mostly Cloudy,280,2014-03-20 00:34:00
7:55 PM,37.4,28.4,70,29.93,10.0,West,5.8,-,N/A,,Overcast,270,2014-03-20 00:55:00
8:15 PM,37.4,26.6,65,29.93,10.0,West,4.6,-,N/A,,Overcast,260,2014-03-20 01:15:00
8:34 PM,35.6,33.8,93,29.94,10.0,NNW,5.8,-,N/A,,Overcast,340,2014-03-20 01:34:00
8:55 PM,33.8,33.8,100,29.94,10.0,NW,3.5,-,N/A,,Overcast,310,2014-03-20 01:55:00
9:14 PM,33.8,33.8,100,29.94,10.0,WNW,3.5,-,N/A,,Mostly Cloudy,290,2014-03-20 02:14:00
9:34 PM,33.8,33.8,100,29.95,10.0,Calm,Calm,-,N/A,,Mostly Cloudy,0,2014-03-20 02:34:00
9:55 PM,33.8,33.8,100,29.94,10.0,Calm,Calm,-,N/A,,Scattered Clouds,0,2014-03-20 02:55:00
10:14 PM,33.8,33.8,100,29.94,10.0,SSW,3.5,-,N/A,,Clear,200,2014-03-20 03:14:00
10:34 PM,32.0,32.0,100,29.95,10.0,SW,3.5,-,N/A,,Clear,220,2014-03-20 03:34:00
10:55 PM,32.0,32.0,100,29.95,10.0,WSW,3.5,-,N/A,,Scattered Clouds,240,2014-03-20 03:55:00
11:14 PM,32.0,32.0,100,29.95,10.0,Calm,Calm,-,N/A,,Mostly Cloudy,0,2014-03-20 04:14:00
11:35 PM,30.2,30.2,100,29.95,10.0,Calm,Calm,-,N/A,,Scattered Clouds,0,2014-03-20 04:35:00
11:55 PM,32.0,32.0,100,29.95,10.0,Calm,Calm,-,N/A,,Clear,0,2014-03-20 04:55:00